Location: Mainz-Finthen
(49.9906°N, 8.1713°E)
Time: 21:39:28
(UTC+00:00)

N. Korean satellite - Pass Details

Date: 28 September 2021
Orbit: 450 x 495 km, 97.3° (Epoch: 15 October)

Event Time Altitude Azimuth Distance (km) Brightness Sun altitude
Rises 03:39:56 0° 31° (NNE) 2,536 11.0 -17.1°
Reaches altitude 10° 03:42:55 10° 59° (ENE) 1,662 10.5 -16.7°
Maximum altitude 03:44:43 13° 90° (E) 1,472 10.1 -16.4°
Drops below altitude 10° 03:46:30 10° 120° (ESE) 1,667 9.9 -16.1°
Sets 03:49:30 0° 148° (SSE) 2,551 10.4 -15.7°
